[[{"header":{"parameterUnit":"m.s-1","parameterCategory":1,"la1":30.2992,"la2":30.254,"lo1":-89.0895,"lo2":-89.0443,"dy":0.0025,"dx":0.0025,"nx":19,"ny":19,"refTime":"2026-05-08T21:00:00:Z","depth":0,"parameterNumber":2,"parameterNumberName":"U-component_of_WINDS"},"data":[0,0,0,-0.928,-0.9279,-0.9204,-0.9204,-0.913,-0.913,0,0,0,0,0,0,0,0,0,0,0,-0.9313,-0.9313,-0.928,-0.9279,-0.9205,-0.9204,-0.9131,-0.913,0,0,0,0,0,0,0,0,0,0,0,-0.9314,-0.9313,-0.9313,-0.9279,-0.9205,-0.9204,-0.9131,-0.9179,0,0,0,0,0,0,0,0,0,0,-0.9248,-0.9289,-0.9313,-0.9313,-0.9278,-0.9205,-0.9204,-0.9181,-0.9176,-0.9173,0,-0.9171,0,-0.915,-0.9126,-0.9126,0,0,0,-0.9271,-0.9293,-0.9263,-0.9313,-0.9278,-0.9205,-0.9236,-0.9178,-0.9173,-0.9166,-0.917,-0.9167,-0.9148,-0.9126,-0.9126,-0.9131,-0.9132,0,0,-0.9275,-0.9306,-0.9267,-0.926,-0.9271,-0.9238,-0.9234,-0.9175,-0.9181,-0.917,-0.9165,-0.9147,-0.9126,-0.9125,-0.9131,-0.9131,0,0,0,-0.9292,-0.9309,-0.928,-0.9264,-0.9249,-0.9236,-0.9231,-0.9184,-0.9172,-0.9164,-0.9146,-0.9125,-0.9125,-0.913,-0.9131,-0.9183,0,0,0,-0.9294,-0.9319,-0.9282,-0.9301,-0.925,-0.9215,-0.9242,-0.9176,-0.9168,-0.9147,-0.9125,-0.9124,-0.913,-0.9131,-0.918,-0.9201,0,0,0,-0.9315,-0.9322,-0.9315,-0.9303,-0.9272,-0.9215,-0.9199,-0.9173,-0.9158,-0.9126,-0.9124,-0.913,-0.9131,-0.9178,-0.9197,-0.9213,0,0,0,-0.9345,-0.936,-0.9316,-0.9326,-0.9273,-0.9247,-0.9199,-0.9179,-0.9157,-0.9125,-0.913,-0.9131,-0.9177,-0.9195,-0.9211,-0.9232,-0.9244,0,0,-0.9381,-0.9365,-0.9369,-0.9327,-0.9318,-0.9256,-0.9255,-0.9205,-0.9173,-0.9148,-0.9147,-0.9181,-0.9197,-0.9213,-0.9298,-0.9307,0,0,0,-0.9391,-0.9394,-0.9385,-0.9366,-0.933,-0.9301,-0.9249,-0.9232,-0.9208,-0.9166,-0.9189,-0.9198,-0.9206,-0.9215,-0.9223,-0.9229,-0.9136,-0.9136,-0.9136,-0.9486,-0.9446,-0.945,-0.9403,-0.9386,-0.9334,-0.9317,-0.9285,-0.9248,-0.9255,-0.9247,-0.9303,-0.9315,-0.932,-0.9327,-0.9255,-0.9255,-0.9255,-0.9255,-0.9535,-0.9534,-0.9488,-0.9476,-0.9435,-0.9425,-0.9377,-0.9352,-0.9338,-0.9305,-0.931,-0.9277,-0.9332,-0.9336,-0.9259,-0.9258,-0.9258,-0.9257,-0.9257,-0.9593,-0.9586,-0.9565,-0.9537,-0.9521,-0.9473,-0.9462,-0.9425,-0.939,-0.9395,-0.9384,-0.9383,-0.9378,-0.9392,-0.9392,-0.9393,-0.9393,-0.9393,-0.9393,-0.9661,-0.9636,-0.9631,-0.9597,-0.9582,-0.9559,-0.951,-0.9495,-0.9469,-0.9443,-0.9443,-0.9408,-0.9344,-0.933,-0.9396,-0.9395,-0.9395,-0.9395,-0.9394,-0.9726,-0.9707,-0.9699,-0.9685,-0.9643,-0.9632,-0.9585,-0.9559,-0.9542,-0.9539,-0.9503,-0.9462,-0.9443,-0.9437,-0.9424,-0.951,-0.951,-0.951,-0.951,-0.9775,-0.9763,-0.9749,-0.9729,-0.9705,-0.9664,-0.9661,-0.9625,-0.9585,-0.9572,-0.9555,-0.9535,-0.953,-0.9514,-0.9506,-0.9494,-0.9596,-0.9596,-0.9596,-0.9814,-0.9798,-0.9801,-0.9761,-0.9728,-0.97,-0.9697,-0.9678,-0.9628,-0.9599,-0.9562,-0.9559,-0.9527,-0.9518,-0.9487,-0.9474,-0.9451,0,0]},{"header":{"parameterUnit":"m.s-1","parameterCategory":1,"la1":30.2992,"la2":30.254,"lo1":-89.0895,"lo2":-89.0443,"dy":0.0025,"dx":0.0025,"nx":19,"ny":19,"refTime":"2026-05-08T21:00:00:Z","depth":0,"parameterNumber":3,"parameterNumberName":"V-component_of_WINDS"},"data":[0,0,0,4.9257,4.9258,4.9263,4.9263,4.927,4.927,0,0,0,0,0,0,0,0,0,0,0,4.9256,4.9257,4.9257,4.9258,4.9263,4.9263,4.927,4.927,0,0,0,0,0,0,0,0,0,0,0,4.9256,4.9257,4.9257,4.9258,4.9263,4.9263,4.927,4.9266,0,0,0,0,0,0,0,0,0,0,4.926,4.926,4.9257,4.9257,4.9258,4.9263,4.9263,4.9266,4.9266,4.9268,0,4.9271,0,4.9271,4.9271,4.9271,0,0,0,4.9257,4.926,4.9261,4.9257,4.9258,4.9263,4.926,4.9266,4.9266,4.9269,4.9271,4.9271,4.9271,4.9271,4.9271,4.9288,4.9288,0,0,4.9256,4.9257,4.9261,4.9261,4.9262,4.926,4.9261,4.9266,4.9268,4.9271,4.9271,4.9271,4.9271,4.9271,4.9288,4.9288,0,0,0,4.9256,4.9257,4.9258,4.9261,4.9262,4.9261,4.9261,4.9268,4.9268,4.9271,4.9271,4.9271,4.9271,4.9288,4.9288,4.9297,0,0,0,4.9256,4.9257,4.9258,4.9259,4.9262,4.9265,4.9262,4.9268,4.9268,4.9271,4.9271,4.9271,4.9288,4.9288,4.9296,4.93,0,0,0,4.9256,4.9257,4.9258,4.9259,4.9262,4.9265,4.9266,4.9268,4.9268,4.9271,4.9271,4.9288,4.9288,4.9296,4.9299,4.9306,0,0,0,4.9256,4.9264,4.9258,4.9268,4.9262,4.9271,4.9266,4.9272,4.9275,4.9271,4.9288,4.9288,4.9295,4.9299,4.9306,4.9313,4.9315,0,0,4.9267,4.9265,4.9271,4.9266,4.9277,4.927,4.9281,4.9282,4.928,4.9285,4.9286,4.9296,4.9299,4.9306,4.933,4.9332,0,0,0,4.9275,4.9279,4.9281,4.9286,4.9288,4.929,4.929,4.929,4.9295,4.9284,4.93,4.9302,4.9306,4.9309,4.9311,4.9315,4.9289,4.9289,4.9289,4.9291,4.9291,4.93,4.9301,4.9305,4.9306,4.9309,4.9309,4.9306,4.931,4.9311,4.9326,4.933,4.9332,4.9336,4.9314,4.9314,4.9314,4.9314,4.9308,4.9314,4.9312,4.932,4.932,4.9326,4.9327,4.9325,4.9331,4.9324,4.9328,4.9321,4.9334,4.9338,4.9315,4.9315,4.9315,4.9315,4.9315,4.9319,4.9322,4.9324,4.9332,4.9337,4.9337,4.9344,4.9342,4.9341,4.9344,4.9346,4.9346,4.9347,4.9345,4.9345,4.9345,4.9345,4.9345,4.9345,4.933,4.9332,4.9339,4.9344,4.9348,4.9352,4.9354,4.9357,4.936,4.9358,4.9358,4.9355,4.9336,4.9331,4.9346,4.9346,4.9346,4.9346,4.9346,4.9348,4.9344,4.9355,4.9359,4.9365,4.9372,4.937,4.9377,4.9379,4.9383,4.938,4.9366,4.9363,4.9362,4.9358,4.9379,4.9379,4.9379,4.9379,4.9358,4.9358,4.9369,4.9376,4.9382,4.9382,4.9394,4.9397,4.9397,4.9399,4.9396,4.9391,4.9389,4.9388,4.9386,4.9383,4.9409,4.9409,4.9409,4.937,4.937,4.9381,4.9384,4.939,4.9394,4.9406,4.9413,4.9413,4.9411,4.94,4.9399,4.9391,4.9388,4.9385,4.9382,4.9376,0,0]}]]